Wetterdaten: Dienstag, 05.11.2013
Datum Zeit Temperatur Luftfeuchte Luftdruck Regen Wind Richtung Richtung Taupunkt Windchill Windben
05.11.2013 00:00 6,7 C 82 % 1000,6 hPa 0,0 l/m 7,1 km/h (2 Bft) S-SO 157 3,8 C 5,2 C 6,9 km/h (2 Bft)
05.11.2013 00:05 6,8 C 83 % 1000,6 hPa 0,0 l/m 6,8 km/h (2 Bft) SO 135 4,1 C 5,8 C 6,9 km/h (2 Bft)
05.11.2013 00:10 6,8 C 83 % 1000,9 hPa 0,0 l/m 7,7 km/h (2 Bft) S-SO 157 4,1 C 4,7 C 11,7 km/h (2 Bft)
05.11.2013 00:15 6,8 C 83 % 1000,9 hPa 0,0 l/m 8,7 km/h (2 Bft) S-SO 157 4,1 C 3,8 C 7,7 km/h (2 Bft)
05.11.2013 00:20 6,6 C 82 % 1000,9 hPa 0,0 l/m 6,8 km/h (2 Bft) S 180 3,8 C 5,8 C 16,3 km/h (3 Bft)
05.11.2013 00:23 6,3 C 82 % 1000,9 hPa 0,0 l/m 5,5 km/h (1 Bft) S-SO 157 3,5 C 6,3 C 3,1 km/h (1 Bft)
05.11.2013 00:25 6,3 C 82 % 1000,9 hPa 0,0 l/m 5,5 km/h (1 Bft) S-SO 157 3,5 C 6,3 C 3,1 km/h (1 Bft)
05.11.2013 00:30 6,2 C 82 % 1000,6 hPa 0,0 l/m 4,5 km/h (1 Bft) SO 135 3,4 C 6,3 C 6,0 km/h (2 Bft)
05.11.2013 00:35 6,2 C 83 % 1000,6 hPa 0,0 l/m 4,8 km/h (1 Bft) SO 135 3,5 C 6,1 C 5,8 km/h (2 Bft)
05.11.2013 00:40 6,2 C 83 % 1000,6 hPa 0,0 l/m 6,1 km/h (2 Bft) S-SO 157 3,5 C 5,5 C 10,6 km/h (2 Bft)
05.11.2013 00:45 6,3 C 83 % 1000,6 hPa 0,0 l/m 6,9 km/h (2 Bft) SO 135 3,6 C 5,0 C 8,5 km/h (2 Bft)
05.11.2013 00:50 6,3 C 82 % 1000,5 hPa 0,0 l/m 8,0 km/h (2 Bft) S 180 3,5 C 3,8 C 7,7 km/h (2 Bft)
05.11.2013 00:55 6,4 C 82 % 1000,5 hPa 0,0 l/m 8,5 km/h (2 Bft) S 180 3,6 C 3,3 C 13,5 km/h (3 Bft)
05.11.2013 01:00 6,4 C 82 % 1000,5 hPa 0,0 l/m 8,9 km/h (2 Bft) O-SO 112 3,6 C 3,1 C 20,6 km/h (4 Bft)
05.11.2013 01:05 6,6 C 82 % 1000,5 hPa 0,0 l/m 10,0 km/h (2 Bft) S 180 3,8 C 2,2 C 13,7 km/h (3 Bft)
05.11.2013 01:10 6,7 C 82 % 1000,7 hPa 0,0 l/m 10,9 km/h (2 Bft) W-SW 247 3,8 C 1,5 C 9,2 km/h (2 Bft)
05.11.2013 01:15 6,7 C 82 % 1000,7 hPa 0,0 l/m 10,8 km/h (2 Bft) S 180 3,8 C 1,5 C 21,1 km/h (4 Bft)
05.11.2013 01:20 6,8 C 83 % 1000,7 hPa 0,0 l/m 9,3 km/h (2 Bft) SO 135 4,1 C 2,9 C 6,6 km/h (2 Bft)
05.11.2013 01:25 6,8 C 83 % 1000,7 hPa 0,0 l/m 9,5 km/h (2 Bft) S 180 4,1 C 2,7 C 14,6 km/h (3 Bft)
05.11.2013 01:30 6,9 C 83 % 1001,0 hPa 0,0 l/m 11,7 km/h (2 Bft) S-SO 157 4,2 C 0,7 C 24,5 km/h (4 Bft)
05.11.2013 01:35 6,8 C 83 % 1001,0 hPa 0,0 l/m 12,6 km/h (3 Bft) S-SO 157 4,1 C 0,0 C 18,5 km/h (3 Bft)
05.11.2013 01:40 6,8 C 82 % 1001,0 hPa 0,0 l/m 13,2 km/h (3 Bft) S 180 3,9 C -0,4 C 31,2 km/h (5 Bft)
05.11.2013 01:45 6,7 C 81 % 1001,0 hPa 0,0 l/m 13,0 km/h (3 Bft) O 90 3,7 C -0,7 C 10,1 km/h (2 Bft)
05.11.2013 01:50 6,5 C 82 % 1001,2 hPa 0,0 l/m 12,1 km/h (2 Bft) S 180 3,7 C -0,2 C 15,6 km/h (3 Bft)
05.11.2013 01:55 6,4 C 83 % 1001,2 hPa 0,0 l/m 10,9 km/h (2 Bft) W-SW 247 3,7 C 0,4 C 12,9 km/h (3 Bft)
05.11.2013 02:00 6,4 C 83 % 1001,2 hPa 0,0 l/m 10,3 km/h (2 Bft) S-SW 202 3,7 C 1,1 C 6,4 km/h (2 Bft)
05.11.2013 02:05 6,4 C 84 % 1001,2 hPa 0,0 l/m 10,5 km/h (2 Bft) S 180 3,9 C 0,7 C 12,1 km/h (2 Bft)
05.11.2013 02:10 6,3 C 84 % 1001,5 hPa 0,0 l/m 8,5 km/h (2 Bft) S 180 3,8 C 2,6 C 10,0 km/h (2 Bft)
05.11.2013 02:15 6,2 C 85 % 1001,5 hPa 0,0 l/m 8,4 km/h (2 Bft) S 180 3,9 C 2,7 C 15,3 km/h (3 Bft)
05.11.2013 02:20 6,2 C 85 % 1001,5 hPa 0,0 l/m 7,9 km/h (2 Bft) S-SO 157 3,9 C 3,3 C 9,8 km/h (2 Bft)
05.11.2013 02:25 6,2 C 85 % 1001,5 hPa 0,0 l/m 8,0 km/h (2 Bft) SO 135 3,9 C 3,0 C 7,4 km/h (2 Bft)
05.11.2013 02:30 6,2 C 85 % 1001,8 hPa 0,0 l/m 8,7 km/h (2 Bft) S 180 3,9 C 2,3 C 8,7 km/h (2 Bft)
05.11.2013 02:35 6,2 C 84 % 1001,8 hPa 0,0 l/m 9,8 km/h (2 Bft) N-NW 337 3,7 C 1,3 C 10,6 km/h (2 Bft)
05.11.2013 02:40 6,1 C 84 % 1001,8 hPa 0,0 l/m 8,0 km/h (2 Bft) SO 135 3,6 C 3,2 C 4,8 km/h (1 Bft)
05.11.2013 02:45 6,1 C 84 % 1001,8 hPa 0,0 l/m 6,6 km/h (2 Bft) S-SO 157 3,6 C 4,7 C 6,6 km/h (2 Bft)
05.11.2013 02:50 6,1 C 84 % 1002,1 hPa 0,0 l/m 6,4 km/h (2 Bft) SO 135 3,6 C 4,9 C 7,7 km/h (2 Bft)
05.11.2013 02:55 6,0 C 85 % 1002,1 hPa 0,0 l/m 6,6 km/h (2 Bft) S 180 3,7 C 4,5 C 8,5 km/h (2 Bft)
05.11.2013 03:00 5,9 C 86 % 1002,1 hPa 0,0 l/m 7,7 km/h (2 Bft) S-SW 202 3,7 C 3,0 C 9,8 km/h (2 Bft)
05.11.2013 03:05 5,9 C 86 % 1002,1 hPa 0,0 l/m 8,7 km/h (2 Bft) S-SO 157 3,7 C 2,0 C 9,7 km/h (2 Bft)
05.11.2013 03:10 5,9 C 87 % 1002,2 hPa 0,0 l/m 8,7 km/h (2 Bft) S 180 3,9 C 2,0 C 9,8 km/h (2 Bft)
05.11.2013 03:15 5,8 C 87 % 1002,2 hPa 0,0 l/m 7,9 km/h (2 Bft) S 180 3,8 C 2,8 C 10,1 km/h (2 Bft)
05.11.2013 03:20 5,7 C 88 % 1002,2 hPa 0,0 l/m 7,6 km/h (2 Bft) NW 315 3,9 C 3,0 C 7,6 km/h (2 Bft)
05.11.2013 03:25 5,7 C 88 % 1002,2 hPa 0,0 l/m 7,2 km/h (2 Bft) S 180 3,9 C 3,5 C 9,8 km/h (2 Bft)
05.11.2013 03:30 5,7 C 88 % 1002,4 hPa 0,0 l/m 7,9 km/h (2 Bft) S 180 3,9 C 2,7 C 10,9 km/h (2 Bft)
05.11.2013 03:35 5,7 C 89 % 1002,4 hPa 0,0 l/m 8,0 km/h (2 Bft) S 180 4,0 C 2,7 C 15,0 km/h (3 Bft)
05.11.2013 03:40 5,4 C 89 % 1002,4 hPa 0,0 l/m 8,0 km/h (2 Bft) S 180 3,7 C 2,7 C 15,0 km/h (3 Bft)
05.11.2013 03:45 4,7 C 89 % 1002,4 hPa 0,7 l/m 8,0 km/h (2 Bft) S 180 3,0 C 2,7 C 15,0 km/h (3 Bft)
05.11.2013 03:50 4,0 C 90 % 1002,8 hPa 0,0 l/m 8,2 km/h (2 Bft) W-SW 247 2,5 C 0,9 C 5,5 km/h (1 Bft)
05.11.2013 03:55 3,9 C 90 % 1002,8 hPa 0,0 l/m 7,1 km/h (2 Bft) S-SW 202 2,4 C 1,6 C 7,1 km/h (2 Bft)
05.11.2013 04:00 3,8 C 91 % 1002,8 hPa 0,0 l/m 4,8 km/h (1 Bft) S-SW 202 2,5 C 2,9 C 5,8 km/h (2 Bft)
05.11.2013 04:05 3,7 C 91 % 1002,8 hPa 0,0 l/m 5,0 km/h (1 Bft) S-SW 202 2,4 C 2,7 C 6,8 km/h (2 Bft)
05.11.2013 04:10 3,6 C 92 % 1003,1 hPa 0,0 l/m 5,3 km/h (1 Bft) S-SW 202 2,4 C 2,4 C 6,8 km/h (2 Bft)
05.11.2013 04:15 3,5 C 92 % 1003,1 hPa 0,0 l/m 5,1 km/h (1 Bft) W 270 2,3 C 2,3 C 4,5 km/h (1 Bft)
05.11.2013 04:20 3,5 C 92 % 1003,1 hPa 0,7 l/m 4,3 km/h (1 Bft) S 180 2,3 C 2,7 C 3,1 km/h (1 Bft)
05.11.2013 04:25 3,5 C 92 % 1003,1 hPa 0,0 l/m 2,7 km/h (1 Bft) S 180 2,3 C 3,5 C 2,7 km/h (1 Bft)
05.11.2013 04:30 3,4 C 93 % 1003,2 hPa 0,0 l/m 2,1 km/h (1 Bft) S-SW 202 2,4 C 3,4 C 4,8 km/h (1 Bft)
05.11.2013 04:35 3,4 C 93 % 1003,2 hPa 0,0 l/m 2,7 km/h (1 Bft) S 180 2,4 C 3,4 C 2,9 km/h (1 Bft)
05.11.2013 04:40 3,4 C 93 % 1003,2 hPa 0,0 l/m 2,4 km/h (1 Bft) S-SW 202 2,4 C 3,4 C 3,9 km/h (1 Bft)
05.11.2013 04:45 3,3 C 93 % 1003,2 hPa 0,0 l/m 3,2 km/h (1 Bft) S-SW 202 2,3 C 3,0 C 4,8 km/h (1 Bft)
05.11.2013 04:50 3,2 C 93 % 1003,6 hPa 0,7 l/m 4,2 km/h (1 Bft) S 180 2,2 C 2,4 C 2,9 km/h (1 Bft)
05.11.2013 04:55 3,1 C 93 % 1003,6 hPa 0,0 l/m 3,7 km/h (1 Bft) S-SW 202 2,1 C 2,6 C 3,9 km/h (1 Bft)
05.11.2013 05:00 3,1 C 94 % 1003,6 hPa 0,0 l/m 4,5 km/h (1 Bft) S 180 2,2 C 2,2 C 11,7 km/h (2 Bft)
05.11.2013 05:05 3,0 C 94 % 1003,6 hPa 0,0 l/m 5,5 km/h (1 Bft) W-SW 247 2,1 C 1,6 C 10,0 km/h (2 Bft)
05.11.2013 05:10 2,9 C 95 % 1003,9 hPa 0,0 l/m 5,5 km/h (1 Bft) S 180 2,2 C 1,5 C 4,5 km/h (1 Bft)
05.11.2013 05:15 2,9 C 95 % 1003,9 hPa 0,0 l/m 4,3 km/h (1 Bft) S 180 2,2 C 1,8 C 5,0 km/h (1 Bft)
05.11.2013 05:20 2,8 C 95 % 1003,9 hPa 0,7 l/m 3,2 km/h (1 Bft) W-SW 247 2,1 C 2,4 C 3,2 km/h (1 Bft)
05.11.2013 05:23 2,7 C 95 % 1003,9 hPa 0,0 l/m 3,2 km/h (1 Bft) SO 135 2,0 C 2,4 C 0,0 km/h (0 Bft)
05.11.2013 05:25 2,7 C 95 % 1003,9 hPa 0,0 l/m 3,2 km/h (1 Bft) SO 135 2,0 C 2,4 C 0,0 km/h (0 Bft)
05.11.2013 05:30 2,7 C 95 % 1004,1 hPa 0,0 l/m 2,3 km/h (1 Bft) W-SW 247 2,0 C 2,7 C 2,9 km/h (1 Bft)
05.11.2013 05:35 2,7 C 95 % 1004,1 hPa 0,7 l/m 1,3 km/h (1 Bft) S 180 2,0 C 2,6 C 1,9 km/h (1 Bft)
05.11.2013 05:40 2,6 C 95 % 1004,1 hPa 0,0 l/m 1,0 km/h (0 Bft) W-SW 247 1,9 C 2,5 C 0,0 km/h (0 Bft)
05.11.2013 05:45 2,5 C 95 % 1004,1 hPa 0,0 l/m 0,5 km/h (0 Bft) S-SO 157 1,8 C 2,5 C 0,0 km/h (0 Bft)
05.11.2013 05:50 2,5 C 95 % 1004,4 hPa 0,0 l/m 0,5 km/h (0 Bft) SO 135 1,8 C 2,4 C 6,3 km/h (2 Bft)
05.11.2013 05:55 2,4 C 95 % 1004,4 hPa 0,0 l/m 2,7 km/h (1 Bft) O-NO 67 1,7 C 2,3 C 4,0 km/h (1 Bft)
05.11.2013 06:00 2,3 C 95 % 1004,4 hPa 0,7 l/m 4,2 km/h (1 Bft) S 180 1,6 C 1,4 C 2,3 km/h (1 Bft)
05.11.2013 06:05 2,3 C 95 % 1004,4 hPa 0,0 l/m 2,1 km/h (1 Bft) S 180 1,6 C 2,3 C 0,0 km/h (0 Bft)
05.11.2013 06:10 2,3 C 95 % 1004,5 hPa 0,0 l/m 1,3 km/h (1 Bft) SO 135 1,6 C 2,3 C 2,4 km/h (1 Bft)
05.11.2013 06:15 2,2 C 95 % 1004,5 hPa 0,7 l/m 2,1 km/h (1 Bft) O-SO 112 1,5 C 2,3 C 2,1 km/h (1 Bft)
05.11.2013 06:20 2,2 C 96 % 1004,5 hPa 0,0 l/m 2,9 km/h (1 Bft) S 180 1,6 C 2,1 C 5,0 km/h (1 Bft)
05.11.2013 06:25 2,2 C 96 % 1004,5 hPa 0,0 l/m 2,3 km/h (1 Bft) S-SO 157 1,6 C 2,2 C 2,3 km/h (1 Bft)
05.11.2013 06:30 2,2 C 96 % 1004,8 hPa 0,0 l/m 2,3 km/h (1 Bft) S-SW 202 1,6 C 2,2 C 4,3 km/h (1 Bft)
05.11.2013 06:35 2,1 C 96 % 1004,8 hPa 0,0 l/m 1,9 km/h (1 Bft) W-SW 247 1,5 C 2,1 C 2,7 km/h (1 Bft)
05.11.2013 06:40 2,1 C 96 % 1004,8 hPa 0,0 l/m 1,3 km/h (1 Bft) W 270 1,5 C 2,1 C 0,0 km/h (0 Bft)
05.11.2013 06:45 2,1 C 96 % 1004,8 hPa 0,0 l/m 0,5 km/h (0 Bft) W-NW 292 1,5 C 2,1 C 0,0 km/h (0 Bft)
05.11.2013 06:50 2,0 C 96 % 1005,1 hPa 0,0 l/m 0,3 km/h (0 Bft) O 90 1,4 C 2,0 C 0,0 km/h (0 Bft)
05.11.2013 06:55 2,1 C 96 % 1005,1 hPa 0,0 l/m 0,3 km/h (0 Bft) NO 45 1,5 C 2,1 C 0,0 km/h (0 Bft)
05.11.2013 07:00 2,1 C 96 % 1005,1 hPa 0,0 l/m 0,0 km/h (0 Bft) O 90 1,5 C 2,1 C 0,0 km/h (0 Bft)
05.11.2013 07:05 2,1 C 96 % 1005,1 hPa 0,0 l/m 0,0 km/h (0 Bft) O 90 1,5 C 2,1 C 0,0 km/h (0 Bft)
05.11.2013 07:10 2,0 C 96 % 1005,0 hPa 0,0 l/m 0,0 km/h (0 Bft) O 90 1,4 C 2,0 C 0,0 km/h (0 Bft)
05.11.2013 07:15 2,0 C 96 % 1005,0 hPa 0,0 l/m 0,0 km/h (0 Bft) O 90 1,4 C 2,0 C 0,0 km/h (0 Bft)
05.11.2013 07:20 2,1 C 96 % 1005,0 hPa 0,7 l/m 0,0 km/h (0 Bft) SO 135 1,5 C 2,1 C 0,0 km/h (0 Bft)
05.11.2013 07:25 2,1 C 96 % 1005,0 hPa 0,0 l/m 0,0 km/h (0 Bft) S 180 1,5 C 2,1 C 0,0 km/h (0 Bft)
05.11.2013 07:30 2,1 C 96 % 1005,2 hPa 0,0 l/m 0,0 km/h (0 Bft) S-SO 157 1,5 C 2,1 C 0,0 km/h (0 Bft)
05.11.2013 07:35 2,2 C 96 % 1005,2 hPa 0,0 l/m 0,0 km/h (0 Bft) SW 225 1,6 C 2,2 C 0,0 km/h (0 Bft)
05.11.2013 07:40 2,2 C 96 % 1005,2 hPa 0,0 l/m 0,0 km/h (0 Bft) W-SW 247 1,6 C 2,2 C 0,0 km/h (0 Bft)
05.11.2013 07:45 2,2 C 96 % 1005,2 hPa 0,0 l/m 0,0 km/h (0 Bft) S-SW 202 1,6 C 2,3 C 0,0 km/h (0 Bft)
05.11.2013 07:50 2,3 C 96 % 1005,2 hPa 0,0 l/m 0,3 km/h (0 Bft) O-NO 67 1,7 C 2,3 C 2,3 km/h (1 Bft)
05.11.2013 07:55 2,3 C 96 % 1005,2 hPa 0,0 l/m 0,5 km/h (0 Bft) NO 45 1,7 C 2,3 C 0,0 km/h (0 Bft)
05.11.2013 08:00 2,3 C 96 % 1005,2 hPa 0,0 l/m 0,2 km/h (0 Bft) NO 45 1,7 C 2,3 C 0,0 km/h (0 Bft)
05.11.2013 08:05 2,4 C 96 % 1005,2 hPa 0,0 l/m 0,0 km/h (0 Bft) NO 45 1,8 C 2,3 C 0,0 km/h (0 Bft)
05.11.2013 08:10 2,4 C 96 % 1005,3 hPa 0,0 l/m 0,0 km/h (0 Bft) O 90 1,8 C 2,4 C 0,0 km/h (0 Bft)
05.11.2013 08:15 2,5 C 96 % 1005,3 hPa 0,0 l/m 0,0 km/h (0 Bft) S-SW 202 1,9 C 2,5 C 0,0 km/h (0 Bft)
05.11.2013 08:20 2,5 C 97 % 1005,3 hPa 0,0 l/m 0,0 km/h (0 Bft) S-SW 202 2,1 C 2,5 C 0,0 km/h (0 Bft)
05.11.2013 08:25 2,5 C 97 % 1005,3 hPa 0,0 l/m 0,0 km/h (0 Bft) S 180 2,1 C 2,6 C 0,0 km/h (0 Bft)
05.11.2013 08:30 2,6 C 97 % 1005,5 hPa 0,0 l/m 0,0 km/h (0 Bft) O-SO 112 2,2 C 2,7 C 0,0 km/h (0 Bft)
05.11.2013 08:35 2,7 C 97 % 1005,5 hPa 0,0 l/m 0,0 km/h (0 Bft) SO 135 2,3 C 2,8 C 0,0 km/h (0 Bft)
05.11.2013 08:40 2,7 C 97 % 1005,5 hPa 0,0 l/m 0,2 km/h (0 Bft) SO 135 2,3 C 3,0 C 0,0 km/h (0 Bft)
05.11.2013 08:45 2,9 C 97 % 1005,5 hPa 0,0 l/m 0,2 km/h (0 Bft) S-SW 202 2,5 C 3,1 C 0,0 km/h (0 Bft)
05.11.2013 08:50 3,1 C 96 % 1005,8 hPa 0,0 l/m 0,2 km/h (0 Bft) W-SW 247 2,5 C 3,1 C 1,6 km/h (1 Bft)
05.11.2013 08:55 3,1 C 96 % 1005,8 hPa 0,0 l/m 0,2 km/h (0 Bft) S-SW 202 2,5 C 3,1 C 0,0 km/h (0 Bft)
05.11.2013 09:00 3,3 C 96 % 1005,8 hPa 0,0 l/m 0,2 km/h (0 Bft) W-SW 247 2,7 C 3,3 C 0,0 km/h (0 Bft)
05.11.2013 09:05 3,3 C 96 % 1005,8 hPa 0,0 l/m 0,3 km/h (0 Bft) S 180 2,7 C 3,4 C 2,1 km/h (1 Bft)
05.11.2013 09:10 3,4 C 96 % 1005,7 hPa 0,0 l/m 0,5 km/h (0 Bft) S 180 2,8 C 3,6 C 0,0 km/h (0 Bft)
05.11.2013 09:15 3,4 C 96 % 1005,7 hPa 0,0 l/m 0,6 km/h (0 Bft) S-SW 202 2,8 C 3,7 C 1,6 km/h (1 Bft)
05.11.2013 09:20 3,6 C 96 % 1005,7 hPa 0,0 l/m 0,8 km/h (0 Bft) S-SW 202 3,0 C 3,8 C 0,0 km/h (0 Bft)
05.11.2013 09:25 3,6 C 96 % 1005,7 hPa 0,0 l/m 0,6 km/h (0 Bft) S-SO 157 3,0 C 3,9 C 1,8 km/h (1 Bft)
05.11.2013 09:30 3,9 C 96 % 1005,7 hPa 0,0 l/m 0,2 km/h (0 Bft) SO 135 3,3 C 4,2 C 2,7 km/h (1 Bft)
05.11.2013 09:35 3,9 C 96 % 1005,7 hPa 0,0 l/m 0,2 km/h (0 Bft) O-SO 112 3,3 C 4,4 C 0,0 km/h (0 Bft)
05.11.2013 09:40 4,1 C 96 % 1005,7 hPa 0,0 l/m 0,2 km/h (0 Bft) S-SW 202 3,5 C 4,7 C 0,0 km/h (0 Bft)
05.11.2013 09:45 4,1 C 96 % 1005,7 hPa 0,0 l/m 0,5 km/h (0 Bft) S 180 3,5 C 4,7 C 0,0 km/h (0 Bft)
05.11.2013 09:50 4,1 C 96 % 1005,9 hPa 0,0 l/m 0,6 km/h (0 Bft) S-SW 202 3,5 C 5,1 C 0,0 km/h (0 Bft)
05.11.2013 09:55 4,2 C 96 % 1005,9 hPa 0,0 l/m 0,3 km/h (0 Bft) S-SW 202 3,6 C 5,5 C 0,0 km/h (0 Bft)
05.11.2013 10:00 4,7 C 96 % 1005,9 hPa 0,0 l/m 0,5 km/h (0 Bft) S 180 4,1 C 7,2 C 2,7 km/h (1 Bft)
05.11.2013 10:05 4,9 C 96 % 1005,9 hPa 0,0 l/m 1,3 km/h (1 Bft) SW 225 4,3 C 8,5 C 3,1 km/h (1 Bft)
05.11.2013 10:10 5,3 C 95 % 1006,2 hPa 0,0 l/m 1,9 km/h (1 Bft) SW 225 4,6 C 8,8 C 4,2 km/h (1 Bft)
05.11.2013 10:15 5,5 C 95 % 1006,2 hPa 0,0 l/m 2,1 km/h (1 Bft) SO 135 4,8 C 8,2 C 6,1 km/h (2 Bft)
05.11.2013 10:18 5,3 C 95 % 1006,2 hPa 0,0 l/m 3,7 km/h (1 Bft) S-SO 157 4,6 C 7,2 C 14,6 km/h (3 Bft)
05.11.2013 10:20 5,3 C 95 % 1006,2 hPa 0,0 l/m 3,7 km/h (1 Bft) S-SO 157 4,6 C 7,2 C 14,6 km/h (3 Bft)
05.11.2013 10:25 5,3 C 94 % 1006,2 hPa 0,0 l/m 4,7 km/h (1 Bft) S-SW 202 4,4 C 6,3 C 2,6 km/h (1 Bft)
05.11.2013 10:30 5,1 C 94 % 1005,8 hPa 0,0 l/m 5,8 km/h (2 Bft) S 180 4,2 C 5,6 C 4,5 km/h (1 Bft)
05.11.2013 10:35 4,9 C 94 % 1005,8 hPa 0,0 l/m 4,3 km/h (1 Bft) S 180 4,0 C 6,6 C 2,3 km/h (1 Bft)
05.11.2013 10:40 4,3 C 94 % 1005,8 hPa 0,0 l/m 4,0 km/h (1 Bft) SO 135 3,4 C 7,4 C 7,6 km/h (2 Bft)
05.11.2013 10:45 4,3 C 93 % 1005,8 hPa 0,0 l/m 4,2 km/h (1 Bft) S 180 3,3 C 7,4 C 7,6 km/h (2 Bft)
05.11.2013 10:50 4,4 C 93 % 1006,0 hPa 0,0 l/m 4,2 km/h (1 Bft) S 180 3,4 C 7,5 C 6,4 km/h (2 Bft)
05.11.2013 10:55 4,2 C 93 % 1006,0 hPa 0,0 l/m 4,3 km/h (1 Bft) S-SO 157 3,2 C 8,3 C 6,0 km/h (2 Bft)
05.11.2013 11:00 4,2 C 92 % 1006,0 hPa 0,0 l/m 4,2 km/h (1 Bft) SO 135 3,0 C 9,6 C 5,1 km/h (1 Bft)
05.11.2013 11:05 4,0 C 92 % 1006,0 hPa 0,0 l/m 5,0 km/h (1 Bft) SO 135 2,8 C 9,6 C 7,9 km/h (2 Bft)
05.11.2013 11:10 4,0 C 92 % 1006,1 hPa 0,0 l/m 6,6 km/h (2 Bft) O-SO 112 2,8 C 9,1 C 5,1 km/h (1 Bft)
05.11.2013 11:15 4,2 C 91 % 1006,1 hPa 0,0 l/m 6,6 km/h (2 Bft) S 180 2,9 C 9,3 C 7,4 km/h (2 Bft)
05.11.2013 11:20 4,3 C 91 % 1006,1 hPa 0,0 l/m 6,9 km/h (2 Bft) S 180 3,0 C 8,9 C 6,8 km/h (2 Bft)
05.11.2013 11:25 4,5 C 91 % 1006,1 hPa 0,0 l/m 7,1 km/h (2 Bft) S 180 3,2 C 8,8 C 3,9 km/h (1 Bft)
05.11.2013 11:30 4,5 C 91 % 1006,2 hPa 0,0 l/m 6,3 km/h (2 Bft) S-SW 202 3,2 C 10,1 C 6,1 km/h (2 Bft)
05.11.2013 11:35 4,6 C 90 % 1006,2 hPa 0,0 l/m 6,8 km/h (2 Bft) S 180 3,1 C 9,6 C 14,5 km/h (3 Bft)
05.11.2013 11:40 4,6 C 89 % 1006,2 hPa 0,0 l/m 8,4 km/h (2 Bft) S 180 2,9 C 7,8 C 9,8 km/h (2 Bft)
05.11.2013 11:45 4,7 C 88 % 1006,2 hPa 0,0 l/m 8,4 km/h (2 Bft) S-SO 157 2,9 C 7,4 C 7,4 km/h (2 Bft)
05.11.2013 11:50 5,2 C 88 % 1006,0 hPa 0,0 l/m 7,4 km/h (2 Bft) S-SO 157 3,4 C 9,0 C 15,8 km/h (3 Bft)
05.11.2013 11:55 5,4 C 87 % 1006,0 hPa 0,0 l/m 6,6 km/h (2 Bft) S-SW 202 3,4 C 10,5 C 6,6 km/h (2 Bft)
05.11.2013 12:00 5,9 C 85 % 1006,0 hPa 0,0 l/m 6,3 km/h (2 Bft) N 360 3,6 C 11,6 C 8,4 km/h (2 Bft)
05.11.2013 12:05 6,4 C 83 % 1006,0 hPa 0,0 l/m 6,4 km/h (2 Bft) S 180 3,7 C 11,4 C 10,3 km/h (2 Bft)
05.11.2013 12:10 6,5 C 81 % 1005,7 hPa 0,0 l/m 6,6 km/h (2 Bft) S-SW 202 3,5 C 11,4 C 5,1 km/h (1 Bft)
05.11.2013 12:15 6,7 C 80 % 1005,7 hPa 0,0 l/m 6,8 km/h (2 Bft) W-SW 247 3,5 C 11,5 C 7,6 km/h (2 Bft)
05.11.2013 12:20 6,4 C 78 % 1005,7 hPa 0,0 l/m 7,1 km/h (2 Bft) S 180 2,8 C 10,0 C 10,9 km/h (2 Bft)
05.11.2013 12:25 6,2 C 78 % 1005,7 hPa 0,0 l/m 7,1 km/h (2 Bft) W 270 2,7 C 9,7 C 7,4 km/h (2 Bft)
05.11.2013 12:30 6,4 C 80 % 1005,8 hPa 0,0 l/m 6,8 km/h (2 Bft) SW 225 3,2 C 9,2 C 10,3 km/h (2 Bft)
05.11.2013 12:35 6,2 C 80 % 1005,8 hPa 0,0 l/m 6,6 km/h (2 Bft) S 180 3,0 C 8,7 C 6,8 km/h (2 Bft)
05.11.2013 12:40 5,9 C 82 % 1005,8 hPa 0,0 l/m 7,2 km/h (2 Bft) S 180 3,1 C 6,4 C 8,7 km/h (2 Bft)
05.11.2013 12:45 5,8 C 84 % 1005,8 hPa 0,0 l/m 6,4 km/h (2 Bft) S 180 3,3 C 6,4 C 5,8 km/h (2 Bft)
05.11.2013 12:50 6,0 C 82 % 1005,0 hPa 0,0 l/m 5,5 km/h (1 Bft) S 180 3,2 C 6,5 C 8,2 km/h (2 Bft)
05.11.2013 12:55 6,0 C 82 % 1005,0 hPa 0,0 l/m 5,6 km/h (1 Bft) S 180 3,2 C 6,4 C 7,4 km/h (2 Bft)
05.11.2013 13:00 5,8 C 83 % 1005,0 hPa 0,0 l/m 6,4 km/h (2 Bft) S-SW 202 3,1 C 6,0 C 6,4 km/h (2 Bft)
05.11.2013 13:05 6,0 C 83 % 1005,0 hPa 0,0 l/m 6,4 km/h (2 Bft) S 180 3,3 C 6,1 C 9,8 km/h (2 Bft)
05.11.2013 13:10 6,7 C 82 % 1004,9 hPa 0,0 l/m 7,4 km/h (2 Bft) S-SO 157 3,8 C 7,6 C 11,6 km/h (2 Bft)
05.11.2013 13:15 6,9 C 77 % 1004,9 hPa 0,0 l/m 8,4 km/h (2 Bft) S 180 3,2 C 7,1 C 8,9 km/h (2 Bft)
05.11.2013 13:20 6,6 C 76 % 1004,9 hPa 0,0 l/m 9,5 km/h (2 Bft) W-SW 247 2,7 C 5,4 C 14,2 km/h (3 Bft)
05.11.2013 13:25 6,3 C 76 % 1004,9 hPa 0,0 l/m 9,2 km/h (2 Bft) S 180 2,4 C 4,9 C 11,6 km/h (2 Bft)
05.11.2013 13:30 6,3 C 75 % 1004,9 hPa 0,0 l/m 9,7 km/h (2 Bft) S-SO 157 2,2 C 4,0 C 10,6 km/h (2 Bft)
05.11.2013 13:35 6,3 C 75 % 1004,9 hPa 0,0 l/m 8,4 km/h (2 Bft) S 180 2,2 C 5,0 C 6,4 km/h (2 Bft)
05.11.2013 13:40 6,4 C 79 % 1004,9 hPa 0,0 l/m 6,3 km/h (2 Bft) S 180 3,0 C 6,8 C 9,7 km/h (2 Bft)
05.11.2013 13:45 6,4 C 77 % 1004,9 hPa 0,0 l/m 5,6 km/h (1 Bft) S-SO 157 2,7 C 6,8 C 5,5 km/h (1 Bft)
05.11.2013 13:50 6,5 C 76 % 1004,2 hPa 0,0 l/m 6,4 km/h (2 Bft) SO 135 2,6 C 6,6 C 4,5 km/h (1 Bft)
05.11.2013 13:55 6,7 C 77 % 1004,2 hPa 0,0 l/m 5,8 km/h (2 Bft) S-SO 157 3,0 C 6,9 C 6,9 km/h (2 Bft)
05.11.2013 14:00 6,9 C 78 % 1004,2 hPa 0,0 l/m 3,4 km/h (1 Bft) S-SO 157 3,3 C 7,9 C 2,1 km/h (1 Bft)
05.11.2013 14:05 6,6 C 77 % 1004,2 hPa 0,0 l/m 3,1 km/h (1 Bft) O-SO 112 2,9 C 7,9 C 4,5 km/h (1 Bft)
05.11.2013 14:10 6,3 C 77 % 1004,1 hPa 0,0 l/m 2,3 km/h (1 Bft) S-SW 202 2,6 C 8,0 C 1,6 km/h (1 Bft)
05.11.2013 14:15 6,1 C 76 % 1004,1 hPa 0,0 l/m 2,1 km/h (1 Bft) O-SO 112 2,2 C 7,9 C 2,4 km/h (1 Bft)
05.11.2013 14:20 6,1 C 75 % 1004,1 hPa 0,0 l/m 3,5 km/h (1 Bft) S 180 2,0 C 7,9 C 6,8 km/h (2 Bft)
05.11.2013 14:25 6,2 C 74 % 1004,1 hPa 0,0 l/m 5,3 km/h (1 Bft) S 180 1,9 C 7,1 C 15,0 km/h (3 Bft)
05.11.2013 14:30 6,2 C 71 % 1003,8 hPa 0,0 l/m 7,1 km/h (2 Bft) S-SW 202 1,3 C 6,1 C 4,7 km/h (1 Bft)
05.11.2013 14:35 6,3 C 69 % 1003,8 hPa 0,0 l/m 8,2 km/h (2 Bft) S-SW 202 1,0 C 5,4 C 10,5 km/h (2 Bft)
05.11.2013 14:40 6,1 C 70 % 1003,8 hPa 0,0 l/m 7,4 km/h (2 Bft) W-SW 247 1,0 C 5,7 C 5,3 km/h (1 Bft)
05.11.2013 14:45 5,9 C 72 % 1003,8 hPa 0,0 l/m 7,4 km/h (2 Bft) S 180 1,2 C 5,6 C 12,2 km/h (2 Bft)
05.11.2013 14:50 5,5 C 73 % 1003,8 hPa 0,0 l/m 6,9 km/h (2 Bft) S 180 1,1 C 5,5 C 6,9 km/h (2 Bft)
05.11.2013 14:55 5,4 C 73 % 1003,8 hPa 0,0 l/m 7,2 km/h (2 Bft) S-SW 202 1,0 C 4,7 C 6,9 km/h (2 Bft)
05.11.2013 15:00 5,6 C 72 % 1003,8 hPa 0,0 l/m 6,4 km/h (2 Bft) S 180 1,0 C 5,6 C 7,6 km/h (2 Bft)
05.11.2013 15:05 5,5 C 72 % 1003,8 hPa 0,0 l/m 6,0 km/h (2 Bft) S 180 0,9 C 5,6 C 8,5 km/h (2 Bft)
05.11.2013 15:10 5,9 C 71 % 1003,9 hPa 0,0 l/m 6,0 km/h (2 Bft) S 180 1,1 C 5,6 C 6,9 km/h (2 Bft)
05.11.2013 15:15 5,9 C 71 % 1003,9 hPa 0,0 l/m 6,1 km/h (2 Bft) W-SW 247 1,1 C 5,7 C 5,5 km/h (1 Bft)
05.11.2013 15:18 5,4 C 72 % 1003,9 hPa 0,0 l/m 5,8 km/h (2 Bft) W-SW 247 0,8 C 5,4 C 5,3 km/h (1 Bft)
05.11.2013 15:20 5,4 C 72 % 1003,9 hPa 0,0 l/m 5,8 km/h (2 Bft) W-SW 247 0,8 C 5,4 C 5,3 km/h (1 Bft)
05.11.2013 15:25 5,3 C 73 % 1003,9 hPa 0,0 l/m 5,5 km/h (1 Bft) S-SW 202 0,9 C 5,5 C 6,1 km/h (2 Bft)
05.11.2013 15:30 5,1 C 73 % 1003,8 hPa 0,0 l/m 5,5 km/h (1 Bft) S-SW 202 0,7 C 5,2 C 6,6 km/h (2 Bft)
05.11.2013 15:35 4,9 C 73 % 1003,8 hPa 0,0 l/m 6,4 km/h (2 Bft) S-SW 202 0,5 C 4,6 C 7,7 km/h (2 Bft)
05.11.2013 15:40 4,7 C 74 % 1003,8 hPa 0,0 l/m 6,3 km/h (2 Bft) S-SW 202 0,5 C 4,4 C 7,2 km/h (2 Bft)
05.11.2013 15:45 4,6 C 75 % 1003,8 hPa 0,0 l/m 5,6 km/h (1 Bft) S 180 0,6 C 4,6 C 5,8 km/h (2 Bft)
05.11.2013 15:50 4,5 C 75 % 1003,4 hPa 0,0 l/m 4,7 km/h (1 Bft) S-SW 202 0,5 C 4,5 C 5,5 km/h (1 Bft)
05.11.2013 15:55 4,2 C 75 % 1003,4 hPa 0,0 l/m 4,7 km/h (1 Bft) S-SO 157 0,2 C 4,5 C 6,1 km/h (2 Bft)
05.11.2013 16:00 3,9 C 76 % 1003,4 hPa 0,0 l/m 4,2 km/h (1 Bft) SO 135 0,1 C 4,4 C 6,8 km/h (2 Bft)
05.11.2013 16:05 3,8 C 77 % 1003,4 hPa 0,0 l/m 4,0 km/h (1 Bft) S 180 0,1 C 4,3 C 3,1 km/h (1 Bft)
05.11.2013 16:10 3,4 C 77 % 1003,6 hPa 0,0 l/m 3,7 km/h (1 Bft) SO 135 -0,2 C 4,3 C 2,3 km/h (1 Bft)
05.11.2013 16:15 3,4 C 78 % 1003,6 hPa 0,0 l/m 2,1 km/h (1 Bft) SO 135 -0,1 C 4,5 C 1,9 km/h (1 Bft)
05.11.2013 16:20 3,4 C 78 % 1003,6 hPa 0,0 l/m 1,4 km/h (1 Bft) O-SO 112 -0,1 C 3,9 C 3,5 km/h (1 Bft)
05.11.2013 16:25 3,5 C 79 % 1003,6 hPa 0,0 l/m 1,9 km/h (1 Bft) O 90 0,2 C 3,9 C 1,8 km/h (1 Bft)
05.11.2013 16:30 3,5 C 79 % 1003,4 hPa 0,0 l/m 2,6 km/h (1 Bft) O 90 0,2 C 3,6 C 3,2 km/h (1 Bft)
05.11.2013 16:35 3,4 C 80 % 1003,4 hPa 0,0 l/m 2,6 km/h (1 Bft) O-NO 67 0,3 C 3,4 C 2,1 km/h (1 Bft)
05.11.2013 16:40 3,2 C 81 % 1003,4 hPa 0,0 l/m 2,7 km/h (1 Bft) O-NO 67 0,3 C 3,1 C 3,2 km/h (1 Bft)
05.11.2013 16:45 3,2 C 81 % 1003,4 hPa 0,0 l/m 2,9 km/h (1 Bft) O-NO 67 0,3 C 2,8 C 2,6 km/h (1 Bft)
05.11.2013 16:50 2,7 C 83 % 1003,4 hPa 0,0 l/m 2,9 km/h (1 Bft) NO 45 0,1 C 2,3 C 5,1 km/h (1 Bft)
05.11.2013 16:55 2,5 C 83 % 1003,4 hPa 0,0 l/m 3,1 km/h (1 Bft) O-NO 67 -0,1 C 2,0 C 4,3 km/h (1 Bft)
05.11.2013 17:00 2,2 C 84 % 1003,4 hPa 0,0 l/m 3,1 km/h (1 Bft) O-NO 67 -0,2 C 1,8 C 3,5 km/h (1 Bft)
05.11.2013 17:05 2,1 C 85 % 1003,4 hPa 0,0 l/m 2,6 km/h (1 Bft) NO 45 -0,2 C 1,8 C 2,9 km/h (1 Bft)
05.11.2013 17:10 1,9 C 86 % 1003,0 hPa 0,0 l/m 2,3 km/h (1 Bft) NO 45 -0,2 C 1,5 C 1,8 km/h (1 Bft)
05.11.2013 17:15 1,7 C 86 % 1003,0 hPa 0,0 l/m 1,8 km/h (1 Bft) O 90 -0,4 C 1,3 C 2,1 km/h (1 Bft)
05.11.2013 17:20 1,7 C 87 % 1003,0 hPa 0,0 l/m 1,9 km/h (1 Bft) O-NO 67 -0,2 C 1,1 C 2,7 km/h (1 Bft)
05.11.2013 17:25 1,4 C 87 % 1003,0 hPa 0,0 l/m 1,9 km/h (1 Bft) N-NO 22 -0,5 C 1,0 C 1,8 km/h (1 Bft)
05.11.2013 17:30 1,3 C 87 % 1003,1 hPa 0,0 l/m 1,6 km/h (1 Bft) O-SO 112 -0,6 C 0,9 C 0,0 km/h (0 Bft)
05.11.2013 17:35 1,2 C 88 % 1003,1 hPa 0,0 l/m 2,3 km/h (1 Bft) O-NO 67 -0,6 C 0,7 C 5,8 km/h (2 Bft)
05.11.2013 17:40 1,1 C 88 % 1003,1 hPa 0,0 l/m 2,4 km/h (1 Bft) O-NO 67 -0,7 C 0,8 C 2,6 km/h (1 Bft)
05.11.2013 17:45 0,8 C 88 % 1003,1 hPa 0,0 l/m 1,9 km/h (1 Bft) SO 135 -1,0 C 0,7 C 1,9 km/h (1 Bft)
05.11.2013 17:50 0,8 C 88 % 1002,8 hPa 0,0 l/m 1,0 km/h (0 Bft) O-SO 112 -1,0 C 0,5 C 2,4 km/h (1 Bft)
05.11.2013 17:55 0,8 C 89 % 1002,8 hPa 0,0 l/m 1,0 km/h (0 Bft) O-SO 112 -0,8 C 0,4 C 0,0 km/h (0 Bft)
05.11.2013 18:00 0,9 C 89 % 1002,8 hPa 0,0 l/m 1,0 km/h (0 Bft) NO 45 -0,7 C 0,3 C 1,8 km/h (1 Bft)
05.11.2013 18:05 0,9 C 90 % 1002,8 hPa 0,0 l/m 0,6 km/h (0 Bft) NO 45 -0,6 C 0,2 C 0,0 km/h (0 Bft)
05.11.2013 18:10 0,4 C 89 % 1002,8 hPa 0,0 l/m 0,2 km/h (0 Bft) NO 45 -1,2 C 0,2 C 0,0 km/h (0 Bft)
05.11.2013 18:15 0,1 C 89 % 1002,8 hPa 0,0 l/m 0,0 km/h (0 Bft) NO 45 -1,5 C -0,1 C 0,0 km/h (0 Bft)
05.11.2013 18:20 0,0 C 89 % 1002,8 hPa 0,0 l/m 0,0 km/h (0 Bft) W-NW 292 -1,6 C -0,4 C 0,0 km/h (0 Bft)
05.11.2013 18:25 0,1 C 89 % 1002,8 hPa 0,0 l/m 0,0 km/h (0 Bft) N-NO 22 -1,5 C -0,4 C 0,0 km/h (0 Bft)
05.11.2013 18:30 0,3 C 89 % 1002,6 hPa 0,0 l/m 0,0 km/h (0 Bft) N-NO 22 -1,3 C -0,3 C 0,0 km/h (0 Bft)
05.11.2013 18:35 0,0 C 89 % 1002,6 hPa 0,0 l/m 0,0 km/h (0 Bft) NO 45 -1,6 C -0,3 C 0,0 km/h (0 Bft)
05.11.2013 18:40 0,3 C 90 % 1002,6 hPa 0,0 l/m 0,0 km/h (0 Bft) N-NO 22 -1,1 C -0,1 C 0,0 km/h (0 Bft)
05.11.2013 18:45 0,3 C 90 % 1002,6 hPa 0,0 l/m 0,0 km/h (0 Bft) N-NW 337 -1,1 C 0,1 C 0,0 km/h (0 Bft)
05.11.2013 18:50 0,8 C 91 % 1002,4 hPa 0,0 l/m 0,0 km/h (0 Bft) W-NW 292 -0,5 C 0,5 C 0,0 km/h (0 Bft)
05.11.2013 18:55 0,9 C 91 % 1002,4 hPa 0,0 l/m 0,0 km/h (0 Bft) NO 45 -0,4 C 0,7 C 0,0 km/h (0 Bft)
05.11.2013 19:00 0,8 C 91 % 1002,4 hPa 0,0 l/m 0,0 km/h (0 Bft) W 270 -0,5 C 0,8 C 0,0 km/h (0 Bft)
05.11.2013 19:05 0,9 C 91 % 1002,4 hPa 0,0 l/m 0,3 km/h (0 Bft) W-SW 247 -0,4 C 0,9 C 1,8 km/h (1 Bft)
05.11.2013 19:10 0,9 C 91 % 1002,2 hPa 0,0 l/m 0,3 km/h (0 Bft) W 270 -0,4 C 1,0 C 0,0 km/h (0 Bft)
05.11.2013 19:15 1,0 C 91 % 1002,2 hPa 0,0 l/m 0,2 km/h (0 Bft) W 270 -0,3 C 0,9 C 0,0 km/h (0 Bft)
05.11.2013 19:20 1,0 C 92 % 1002,2 hPa 0,0 l/m 0,0 km/h (0 Bft) S-SO 157 -0,2 C 0,9 C 0,0 km/h (0 Bft)
05.11.2013 19:25 0,9 C 92 % 1002,2 hPa 0,0 l/m 0,0 km/h (0 Bft) S-SW 202 -0,2 C 0,9 C 0,0 km/h (0 Bft)
05.11.2013 19:30 0,9 C 92 % 1001,7 hPa 0,0 l/m 0,0 km/h (0 Bft) W-SW 247 -0,2 C 0,9 C 0,0 km/h (0 Bft)
05.11.2013 19:35 0,9 C 92 % 1001,7 hPa 0,0 l/m 0,0 km/h (0 Bft) S-SW 202 -0,2 C 0,9 C 0,0 km/h (0 Bft)
05.11.2013 19:40 1,2 C 92 % 1001,7 hPa 0,0 l/m 0,0 km/h (0 Bft) W-SW 247 0,0 C 1,1 C 0,0 km/h (0 Bft)
05.11.2013 19:45 1,3 C 92 % 1001,7 hPa 0,0 l/m 0,2 km/h (0 Bft) W-SW 247 0,1 C 1,3 C 2,7 km/h (1 Bft)
05.11.2013 19:50 1,5 C 92 % 1001,6 hPa 0,0 l/m 0,3 km/h (0 Bft) W 270 0,3 C 1,6 C 0,0 km/h (0 Bft)
05.11.2013 19:55 1,6 C 92 % 1001,6 hPa 0,0 l/m 0,5 km/h (0 Bft) W-SW 247 0,4 C 1,8 C 0,0 km/h (0 Bft)
05.11.2013 20:00 1,9 C 93 % 1001,6 hPa 0,0 l/m 0,2 km/h (0 Bft) W-SW 247 0,9 C 2,0 C 0,0 km/h (0 Bft)
05.11.2013 20:05 2,0 C 93 % 1001,6 hPa 0,0 l/m 0,8 km/h (0 Bft) S-SW 202 1,0 C 2,1 C 2,3 km/h (1 Bft)
05.11.2013 20:10 2,2 C 93 % 1001,4 hPa 0,0 l/m 1,1 km/h (1 Bft) NW 315 1,2 C 2,3 C 0,0 km/h (0 Bft)
05.11.2013 20:15 2,3 C 93 % 1001,4 hPa 0,0 l/m 1,0 km/h (0 Bft) W-NW 292 1,3 C 2,3 C 0,0 km/h (0 Bft)
05.11.2013 20:18 2,5 C 93 % 1001,4 hPa 0,0 l/m 1,1 km/h (1 Bft) W-SW 247 1,5 C 2,4 C 0,0 km/h (0 Bft)
05.11.2013 20:20 2,5 C 93 % 1001,4 hPa 0,0 l/m 1,1 km/h (1 Bft) W-SW 247 1,5 C 2,4 C 0,0 km/h (0 Bft)
05.11.2013 20:25 2,6 C 93 % 1001,4 hPa 0,0 l/m 1,4 km/h (1 Bft) W-SW 247 1,6 C 2,5 C 3,1 km/h (1 Bft)
05.11.2013 20:30 2,8 C 93 % 1001,1 hPa 0,0 l/m 1,8 km/h (1 Bft) S-SW 202 1,8 C 2,6 C 5,0 km/h (1 Bft)
05.11.2013 20:35 3,0 C 91 % 1001,1 hPa 0,0 l/m 2,6 km/h (1 Bft) S 180 1,7 C 2,7 C 2,9 km/h (1 Bft)
05.11.2013 20:40 3,0 C 91 % 1001,1 hPa 0,0 l/m 2,1 km/h (1 Bft) N-NO 22 1,7 C 2,9 C 0,0 km/h (0 Bft)
05.11.2013 20:45 3,0 C 90 % 1001,1 hPa 0,0 l/m 1,4 km/h (1 Bft) S 180 1,5 C 3,0 C 4,7 km/h (1 Bft)
05.11.2013 20:50 3,2 C 90 % 1001,1 hPa 0,0 l/m 1,6 km/h (1 Bft) N 360 1,7 C 3,2 C 0,0 km/h (0 Bft)
05.11.2013 20:55 3,2 C 90 % 1001,1 hPa 0,0 l/m 1,8 km/h (1 Bft) S 180 1,7 C 3,3 C 4,5 km/h (1 Bft)
05.11.2013 21:00 3,2 C 89 % 1001,1 hPa 0,0 l/m 2,1 km/h (1 Bft) S 180 1,6 C 3,5 C 2,3 km/h (1 Bft)
05.11.2013 21:05 3,2 C 89 % 1001,1 hPa 0,0 l/m 2,1 km/h (1 Bft) O 90 1,6 C 3,5 C 2,7 km/h (1 Bft)
05.11.2013 21:10 3,2 C 88 % 1001,4 hPa 0,0 l/m 1,3 km/h (1 Bft) S-SW 202 1,4 C 3,5 C 3,4 km/h (1 Bft)
05.11.2013 21:15 3,2 C 88 % 1001,4 hPa 0,0 l/m 1,1 km/h (1 Bft) W-SW 247 1,4 C 3,5 C 0,0 km/h (0 Bft)
05.11.2013 21:20 3,2 C 88 % 1001,4 hPa 0,0 l/m 0,8 km/h (0 Bft) SO 135 1,4 C 3,3 C 0,0 km/h (0 Bft)
05.11.2013 21:25 3,2 C 88 % 1001,4 hPa 0,0 l/m 0,6 km/h (0 Bft) O-SO 112 1,4 C 3,2 C 4,2 km/h (1 Bft)
05.11.2013 21:30 3,1 C 88 % 1001,7 hPa 0,0 l/m 2,3 km/h (1 Bft) NO 45 1,3 C 3,1 C 4,0 km/h (1 Bft)
05.11.2013 21:35 3,0 C 89 % 1001,7 hPa 0,0 l/m 2,6 km/h (1 Bft) O 90 1,4 C 3,0 C 0,0 km/h (0 Bft)
05.11.2013 21:40 2,9 C 91 % 1001,7 hPa 0,7 l/m 0,5 km/h (0 Bft) O-NO 67 1,6 C 2,9 C 0,0 km/h (0 Bft)
05.11.2013 21:45 2,9 C 92 % 1001,7 hPa 0,0 l/m 0,6 km/h (0 Bft) O-SO 112 1,7 C 2,9 C 3,2 km/h (1 Bft)
05.11.2013 21:50 2,9 C 93 % 1001,6 hPa 0,0 l/m 0,8 km/h (0 Bft) S-SW 202 1,9 C 2,9 C 0,0 km/h (0 Bft)
05.11.2013 21:55 2,9 C 93 % 1001,6 hPa 0,0 l/m 0,5 km/h (0 Bft) O-NO 67 1,9 C 2,9 C 2,6 km/h (1 Bft)
05.11.2013 22:00 2,9 C 93 % 1001,6 hPa 0,0 l/m 1,3 km/h (1 Bft) O 90 1,9 C 2,9 C 4,7 km/h (1 Bft)
05.11.2013 22:05 3,0 C 93 % 1001,6 hPa 0,0 l/m 1,9 km/h (1 Bft) S 180 2,0 C 3,0 C 4,2 km/h (1 Bft)
05.11.2013 22:10 3,2 C 93 % 1001,8 hPa 0,0 l/m 2,9 km/h (1 Bft) S 180 2,2 C 3,0 C 5,3 km/h (1 Bft)
05.11.2013 22:15 3,3 C 93 % 1001,8 hPa 0,0 l/m 2,7 km/h (1 Bft) SO 135 2,3 C 3,1 C 2,6 km/h (1 Bft)
05.11.2013 22:20 3,5 C 93 % 1001,8 hPa 0,0 l/m 2,6 km/h (1 Bft) S-SO 157 2,5 C 3,4 C 2,1 km/h (1 Bft)
05.11.2013 22:25 3,6 C 94 % 1001,8 hPa 0,0 l/m 2,9 km/h (1 Bft) S-SW 202 2,7 C 3,4 C 5,0 km/h (1 Bft)
05.11.2013 22:30 3,7 C 94 % 1001,6 hPa 0,0 l/m 3,2 km/h (1 Bft) S 180 2,8 C 3,5 C 12,4 km/h (3 Bft)
05.11.2013 22:35 3,8 C 94 % 1001,6 hPa 0,0 l/m 4,3 km/h (1 Bft) S 180 2,9 C 3,1 C 8,2 km/h (2 Bft)
05.11.2013 22:40 4,2 C 94 % 1001,6 hPa 0,0 l/m 6,6 km/h (2 Bft) S-SO 157 3,3 C 2,3 C 10,5 km/h (2 Bft)
05.11.2013 22:45 4,4 C 94 % 1001,6 hPa 0,0 l/m 8,0 km/h (2 Bft) S-SO 157 3,5 C 1,1 C 5,8 km/h (2 Bft)
05.11.2013 22:50 4,6 C 94 % 1001,9 hPa 0,0 l/m 8,7 km/h (2 Bft) S-SW 202 3,7 C 0,6 C 13,7 km/h (3 Bft)
05.11.2013 22:55 4,7 C 94 % 1001,9 hPa 0,0 l/m 8,5 km/h (2 Bft) S-SO 157 3,8 C 1,1 C 7,1 km/h (2 Bft)
05.11.2013 23:00 4,9 C 94 % 1001,9 hPa 0,0 l/m 9,3 km/h (2 Bft) S 180 4,0 C 0,5 C 10,6 km/h (2 Bft)
05.11.2013 23:05 5,0 C 93 % 1001,9 hPa 0,0 l/m 9,3 km/h (2 Bft) S-SO 157 4,0 C 0,6 C 10,0 km/h (2 Bft)
05.11.2013 23:10 5,3 C 94 % 1002,2 hPa 0,0 l/m 9,2 km/h (2 Bft) SO 135 4,4 C 0,9 C 7,4 km/h (2 Bft)
05.11.2013 23:15 5,4 C 94 % 1002,2 hPa 0,0 l/m 9,0 km/h (2 Bft) S-SO 157 4,5 C 1,3 C 16,3 km/h (3 Bft)
05.11.2013 23:20 5,5 C 94 % 1002,2 hPa 0,0 l/m 7,4 km/h (2 Bft) S 180 4,6 C 3,3 C 12,2 km/h (2 Bft)
05.11.2013 23:25 5,6 C 94 % 1002,2 hPa 0,0 l/m 8,2 km/h (2 Bft) S 180 4,7 C 2,5 C 11,1 km/h (2 Bft)
05.11.2013 23:30 5,9 C 94 % 1002,1 hPa 0,0 l/m 9,5 km/h (2 Bft) S 180 5,0 C 1,4 C 10,8 km/h (2 Bft)
05.11.2013 23:35 6,0 C 92 % 1002,1 hPa 0,0 l/m 9,8 km/h (2 Bft) S-SO 157 4,8 C 1,3 C 23,3 km/h (4 Bft)
05.11.2013 23:40 6,3 C 91 % 1002,1 hPa 0,0 l/m 9,8 km/h (2 Bft) S-SO 157 4,9 C 1,3 C 23,3 km/h (4 Bft)
05.11.2013 23:45 6,4 C 91 % 1002,1 hPa 0,0 l/m 15,1 km/h (3 Bft) S 180 5,0 C -2,6 C 16,1 km/h (3 Bft)
05.11.2013 23:50 6,4 C 90 % 1002,2 hPa 0,0 l/m 12,9 km/h (3 Bft) S 180 4,9 C -0,7 C 17,7 km/h (3 Bft)
05.11.2013 23:55 6,5 C 90 % 1002,2 hPa 0,0 l/m 11,7 km/h (2 Bft) S 180 5,0 C 0,3 C 15,6 km/h (3 Bft)
_ Min-Zeit 18:35 14:35 01:05 - 19:40 - - 18:35 23:45 21:50
Minimum _ 0,0 C 69 % 1000,5 hPa - 0,0 km/h (0 Bft) - - -1,6 C -2,6 C 0,0 km/h (0 Bft)
_ Max-Zeit 14:00 08:45 11:45 21:40 23:45 - - 23:45 12:00 01:40
Maximum _ 6,9 C 97 % 1006,2 hPa 0,7 l/m 15,1 km/h
S (3 Bft)
- - 5,0 C 11,6 C 31,2 km/h
S (5 Bft)
Durchschnitt _ 4,0 C 88 % 1003,4 hPa #6,2 l/m 4,2 km/h (1 Bft) S - 2,2 C 3,6 C 5,5 km/h (1 Bft)